Weather in Kylasovo

Russia / Perm Krai     57°32′50″N   56°40′14″E
temp.,
°C
wind,
m/s
gust,
m/s
humid.,
%
clouds,
%
prec.,
mm/h
press.,
hPa
HPBL,
m
19 january, wed
wed1923:00−4ssw71493100 0.3 1009646
02:00−4ssw71494100 0.4 1010659
05:00−4ssw71494100 0.7 1011631
08:00−3ssw7149396 0.3 1011693
11:00−4ssw7149091 0.3 1013601
14:00−3ssw71389100 0.0 1015645
17:00−4ssw61190100 0.0 1016465
20:00−5s51293100 0.1 1017419
20 january, thu
thu2023:00−6s6139288 0.1 1017430
02:00−6ssw71390100 0.1 1018528
05:00−6s71391100 0.1 1018533
08:00−7s61391100 0.1 1019516
11:00−7ssw6139299 0.1 1019559
14:00−6ssw6129097 0.1 1020778
17:00−7ssw51091100 0.1 1020348
20:00−10ssw4109684 0.0 1021195
21 january, fri
fri2123:00−11s4109677 0.1 1021198
02:00−11ssw4109671 0.0 1022226
05:00−13s489612 0.1 1023123
08:00−16s379541 0.0 102492
11:00−15s37936 0.0 1024113
14:00−11s359010 0.0 1025166
17:00−14sse229610 0.0 102613
20:00−19sse229910 0.0 102710
22 january, sat
sat2223:00−21s1110018 0.0 10289
02:00−22se1110036 0.0 10289
05:00−23e0010053 0.0 10299
08:00−23ne1110063 0.0 10299
11:00−18ese1196100 0.0 102940
14:00−12ese1291100 0.0 1029108
17:00−13e1195100 0.0 10299
20:00−15sse0197100 0.0 10309
23 january, sun
sun2323:00−16ese1198100 0.0 10319
02:00−18s119863 0.0 10329
05:00−21se1110094 0.0 10349
08:00−22ese1110062 0.0 10359
11:00−20sse119941 0.0 103620
14:00−12ese1184100 0.0 103671
17:00−15e1192100 0.0 10379
20:00−16e1192100 0.0 103811